星链-1709 (STARLINK-1709 )

导读 | 星芒AI

STARLINK-1709 是 SpaceX Starlink 卫星互联网项目中的第 1709 颗卫星,属于低轨卫星通信网络的一部分。该卫星于 2023 年发射,旨在为全球用户提供高速、低延迟的互联网服务。Starlink 项目致力于通过部署数千颗卫星,改善偏远地区网络覆盖,推动全球互联网普及。STARLINK-1709 采用先进推进和通信技术,具备自动避障功能,有助于提升星座整体性能与安全性。

基本信息
目录编号:
46561
目录名称:
STARLINK-1709
国际标识:
2020-070AF
轨道中心:
EARTH
卫星名称:
星链-1709
卫星全名:
星链-1709 (STARLINK-1709 )
卫星状态:
已陨落 最后检测时间 2025-02-09
发射日期:
2020-10-06 UTC
国别 :
美国 (US)
星等 :
--
轨道信息
数据来源 国际轨道数据
星历时间: 2025-02-10T06:15:39+0800
轨道信息已过期309天
半长轴: 6539.702km
偏心率: 0.0001529
轨道倾角: 53.020°
近地点辐角 37.489°
升交点赤经 77.441°
平近点角 49.114°
近地点: 160.567km
远地点: 162.567km
周期: 87.720分钟
每日圈数: 16.415946
详细信息
固有亮度:
5
最大亮度:
2.5
卫星平台:
Starlink V1.0
覆盖范围:
全球
运营商:
太空探索技术公司
运营商所在国:
美国
制造商(研发单位):
太空探索技术公司
制造商所在国:
美国
使用方式:
暂无
卫星简介
星链(Starlink)计划是由太空探索技术公司(SpaceX)提出的一个巨型低轨卫星互联网星座项目,计划在2019年至2024年间在太空搭建由约1.2万颗卫星组成的“星链”网络,其中1584颗将部署在地球上空550千米处的近地轨道,并从2020年开始工作。该卫星仍在工作。